Regional Weather Roundup
Issued by NWS

Home | Current Version | Previous Version | Graphics & Text | Print | Product List | Glossary On
Versions: 1 2 3 4 5 6 7 8 9 10 11 12 13 14 15 16 17 18 19 20 21 22 23 24 25 26 27 28 29 30 31 32 33 34 35 36 37 38 39 40 41 42 43 44 45 46 47 48 49 50
000
ASUS43 KLSX 010210
RWRMO

WEATHER SUMMARY FOR MISSOURI
NATIONAL WEATHER SERVICE SPRINGFIELD MO
900 PM CDT SUN APR 30 2017

NOTE: "FAIR" INDICATES FEW OR NO CLOUDS BELOW 12,000 FEET WITH NO
       SIGNIFICANT WEATHER AND/OR OBSTRUCTIONS TO VISIBILITY.
       CURRENT SKY AND/OR WEATHER CONDITIONS ARE NOT AVAILABLE FOR
       CHILLICOTHE AND FARMINGTON.

MOZ001>031-035>038-043-044-053-054-010300-
...NORTHERN AND WESTERN MISSOURI...

CITY           SKY/WX    TMP DP  RH WIND       PRES   REMARKS
KANSAS CTY INT CLOUDY    46  41  82 S12       29.48F
KANSAS C DTWN  CLOUDY   N/A N/A N/A S12       29.48F
LEE`S SUMMIT   CLOUDY    49  39  68 S9        29.49F
ST JOSEPH      CLOUDY    49  41  74 S13       29.48S
CHILLICOTHE      N/A     52  41  66 S5        29.50F
KIRKSVILLE     CLOUDY    51  31  46 SW7       29.52R

$$
MOZ066>068-077>081-088>096-101>105-010300-
...SOUTHWEST MISSOURI...

CITY           SKY/WX    TMP DP  RH WIND       PRES   REMARKS
SPRINGFIELD    CLOUDY    50  40  68 SW18G26   29.57S
JOPLIN         CLOUDY    50  40  68 SW21G30   29.54S
BRANSON        CLOUDY    48  41  76 SW10G18   29.62S

$$
MOZ032>034-039>042-045>050-055>058-069>072-010300-
...CENTRAL MISSOURI...

CITY           SKY/WX    TMP DP  RH WIND       PRES   REMARKS
COLUMBIA       CLOUDY    55  44  66 SW8       29.54R
JEFFERSON CITY CLOUDY    61  41  47 W12       29.53R
ROLLA          CLOUDY    57  44  62 SW17      29.54R
SEDALIA        CLOUDY    53  41  63 SW16G25   29.54S
WHITEMAN AFB   CLOUDY    51  39  63 S15G23    29.50F
OSAGE BEACH    MOCLDY    56  37  49 SW17G26   29.56R

$$
MOZ051-052-059>065-010300-
...EAST CENTRAL MISSOURI...

CITY           SKY/WX    TMP DP  RH WIND       PRES   REMARKS
ST LOUIS INTL  PTCLDY    69  48  47 S17G32    29.52R
SPIRIT OF STL  CLEAR     66  50  56 S12         N/A
ST CHARLES     MOCLDY    67  54  63 S22G29    29.49R

$$
MOZ072>076-082>087-097>100-106>115-010300-
...SOUTH CENTRAL AND SOUTHEAST MISSOURI...

CITY           SKY/WX    TMP DP  RH WIND       PRES   REMARKS
CAPE GIRARDEAU MOCLDY    64  56  75 SW17G28   29.61R
FARMINGTON     CLEAR     61  47  59 S15       29.58R
POPLAR BLUFF   CLEAR     61  52  72 S15G26    29.64R
WEST PLAINS    CLEAR     55  38  52 SW17G25   29.63R

$$



USA.gov is the U.S. government's official web portal to all federal, state and local government web resources and services.